Location: Chrome
(40.5765°N, 74.2163°W)
Time: 09:47:02
(UTC+00:00)

YAOGAN 6 - Pass Details

Date: 06 December 2019
Orbit: 466 x 504 km, 97.0° (Epoch: 17 January)

Event Time Altitude Azimuth Distance (km) Brightness Sun altitude
Rises 22:23:53 0° 139° (SE) 2,500 6.0 -10.1°
Reaches altitude 10° 22:26:10 10° 125° (SE) 1,633 4.9 -10.5°
Maximum altitude 22:29:01 23° 70° (ENE) 1,041 3.6 -11.0°
Drops below altitude 10° 22:31:54 10° 16° (NNE) 1,659 4.9 -11.5°
Sets 22:34:14 0° 2° (N) 2,551 6.0 -12.0°
